Home > Time Zones > World Clock > Weather > U.S.A. > Adak > Past weeks

Flag for U.S.A. Weather past 2 weeks in Adak, Alaska, U.S.A.

28 °F


Feels Like: 28 °F
Forecast: 33 / 40 °F
Wind: No wind

Location: Adak

Current Time: Nov 25, 2015 at 12:36:58 AM

Latest Report: Nov 24, 2015 at 11:56 PM

Visibility: 10 mi

Pressure: 29.94 "Hg

Humidity: 74%

Dew point: 21 °F

Location of AdakLocation

Historic Weather in Adak — Graph


Adak temperature yesterday

Maximum temperature yesterday: 36 °F (at 12:16 PM)
Minimum temperature yesterday: 25 °F (at 10:36 PM)
Average temperature yesterday: 32 °F

Past Weeks' High & Low Weather Summary

High48 °F (Nov 10, 9:36 AM)81% (Nov 19, 10:36 PM)30.37 "Hg (Nov 19, 10:36 PM)
Low25 °F (Nov 24, 10:36 PM)38% (Nov 15, 5:16 AM)29.14 "Hg (Nov 10, 1:16 PM)
Average37 °F64%29.92 "Hg
* Reported Nov 9 11:36 PM — Nov 24 11:36 PM, Adak, Weather by CustomWeather, © 2015

Note: Actual official high and low records may vary slightly from our data, if they occured in-between our weather recording intervals... More about our weather records


Adak weather history for previous 24 hours

Time TempWeatherWind HumidityBarometerVisibility
11:36 PM
Tue, Nov 24
27 °FClear.No wind74%29.95 "Hg10 mi
11:16 PM27 °FClear.No wind74%29.95 "Hg10 mi
10:56 PM27 °FClear.No wind69%29.96 "Hg10 mi
10:36 PM25 °FPassing clouds.No wind74%29.96 "Hg10 mi
10:16 PM27 °FPassing clouds.No wind69%29.96 "Hg10 mi
9:56 PM27 °FClear.No wind69%29.98 "Hg10 mi
9:16 PM28 °FClear.No wind69%29.99 "Hg10 mi
8:56 PM28 °FClear.No wind69%29.99 "Hg10 mi
8:16 PM28 °FClear.No wind69%29.99 "Hg10 mi
7:56 PM30 °FClear.No wind69%29.99 "Hg10 mi
7:36 PM30 °FPassing clouds.6 mph69%29.99 "Hg10 mi
7:16 PM30 °FPassing clouds.7 mph69%29.99 "Hg10 mi
6:56 PM28 °FClear.9 mph64%30.00 "Hg10 mi
6:36 PM30 °FClear.9 mph59%30.00 "Hg10 mi
5:56 PM32 °FClear.10 mph64%30.00 "Hg10 mi
5:36 PM34 °FPassing clouds.8 mph60%30.00 "Hg10 mi
5:16 PM34 °FPassing clouds.8 mph65%30.00 "Hg10 mi
4:56 PM34 °FPassing clouds.No wind65%29.99 "Hg10 mi
4:36 PM34 °FScattered clouds.9 mph65%29.99 "Hg10 mi
4:16 PM34 °FScattered clouds.6 mph65%29.99 "Hg10 mi
3:56 PM34 °FPassing clouds.7 mph65%29.99 "Hg10 mi
3:36 PM34 °FBroken clouds.13 mph70%29.99 "Hg3 mi
3:16 PM36 °FBroken clouds.13 mph60%29.98 "Hg10 mi
1:56 PM36 °FPartly sunny.7 mph60%29.96 "Hg10 mi
1:36 PM36 °FPassing clouds.12 mph52%29.96 "Hg10 mi
1:16 PM34 °FBroken clouds.13 mph70%29.96 "Hg10 mi
12:56 PM34 °FSunny.12 mph56%29.96 "Hg10 mi
12:16 PM36 °FSunny.15 mph52%29.95 "Hg10 mi
11:56 AM34 °FPassing clouds.13 mph56%29.95 "Hg10 mi
11:36 AM34 °FPassing clouds.9 mph60%29.94 "Hg10 mi
10:56 AM34 °FPartly sunny.12 mph60%29.93 "Hg10 mi
10:36 AM34 °FBroken clouds.14 mph60%29.93 "Hg10 mi
10:16 AM34 °FMostly cloudy.5 mph65%29.92 "Hg10 mi
9:56 AM34 °FPartly sunny.7 mph56%29.92 "Hg10 mi
9:36 AM34 °FBroken clouds.6 mph51%29.91 "Hg10 mi
9:16 AM32 °FMostly cloudy.7 mph60%29.91 "Hg10 mi
8:56 AM34 °FCloudy.6 mph60%29.89 "Hg10 mi
8:36 AM34 °FCloudy.8 mph56%29.88 "Hg10 mi
7:56 AM32 °FOvercast.9 mph64%29.86 "Hg10 mi
7:36 AM30 °FPartly cloudy.5 mph64%29.85 "Hg10 mi
7:16 AM32 °FPartly cloudy.7 mph64%29.85 "Hg10 mi
6:56 AM32 °FPassing clouds.7 mph69%29.84 "Hg10 mi
6:36 AM28 °FPartly cloudy.9 mph69%29.83 "Hg10 mi
6:16 AM30 °FPartly cloudy.8 mph64%29.83 "Hg10 mi
5:56 AM32 °FPartly cloudy.8 mph64%29.83 "Hg10 mi
5:36 AM34 °FPartly cloudy.8 mph60%29.82 "Hg10 mi
5:16 AM34 °FPartly cloudy.14 mph65%29.82 "Hg10 mi
4:56 AM34 °FPartly cloudy.12 mph60%29.82 "Hg10 mi
4:36 AM32 °FClear.13 mph60%29.81 "Hg10 mi
4:16 AM34 °FPassing clouds.13 mph60%29.81 "Hg10 mi
3:56 AM34 °FOvercast.9 mph75%29.80 "Hg10 mi
3:36 AM32 °FMostly cloudy.8 mph80%29.80 "Hg4 mi
3:16 AM30 °FPartly cloudy.No wind80%29.80 "Hg9 mi
2:56 AM30 °FOvercast.No wind80%29.80 "Hg10 mi
2:36 AM32 °FMostly cloudy.No wind80%29.79 "Hg2 mi
2:16 AM32 °FMostly cloudy.No wind80%29.79 "Hg1 mi
1:56 AM32 °FOvercast.No wind80%29.79 "Hg5 mi
1:36 AM32 °FMostly cloudy.No wind80%29.79 "Hg1 mi
1:16 AM34 °FMostly cloudy.No wind75%29.79 "Hg1 mi
12:56 AM32 °FPartly cloudy.No wind80%29.78 "Hg10 mi
12:36 AM32 °FMostly cloudy.No wind80%29.78 "Hg5 mi
12:16 AM32 °FPartly cloudy.No wind75%29.78 "Hg10 mi
Weather by CustomWeather, © 2015

See weather overviewHow to use our weather pages